SCOUT A DEB, 2777

Orbit data source: Space-Track

SCOUT A DEB, 2777 is space debris in LEO originally from a launch on Fri, 14 Apr 1967 UTC launched from the Air Force Western Test Range (AFWTR). Debris objects in space refer to the collection of defunct objects orbiting the Earth. Examples of debris include non-operational satellites, rocket bodies, and fragments generated from explosions, collisions, or faulty payload assembly.

Loading next visibility...
Identifier
2777, 1967-034C
Orbit
LEO
Last TLE update
17 hours ago
Origin
Manufacturer
Unknown
Mission
Spacecraft
Bus & Motor
Unknown
Mass
Unknown
Launch date (UTC)
1967-04-14 (58 years ago)
Launch vehicle
Unknown
Launch site
Air Force Western Test Range (AFWTR)
Object type
Payload
Rocket body
Debris
Shape & HBR
Unknown
Radar Cross Section
Small (<0.1 m²)

Expand to show TLE details & history

TLE from 17 hours ago
0 SCOUT A DEB
1 02777U 67034C   25128.49031566  .00000584  00000-0  33140-3 0  9996
2 02777  90.2695 232.8528 0128013 315.0847  44.0032 14.05171718952621
Epoch: 2025-05-08T11:46Z
Definitive object data (Epoch: 2025-05-08T11:46:03.273Z)
Latitude
0.00002°
Longitude
-170.2209°
Altitude
812.748 km
Speed
7.481 km/s
True Right ascension
15h 31m 24s
True Declination
0° 00' 00"
Sunlit
Object was in full shadow at TLE epoch
Visualization TLE readout
Latitude
54.30673°
Longitude
-170.57252°
Altitude
902.23 km
Speed
7.397 km/s
Apparent Right ascension
21h 14m 58s
Apparent Declination
33° 45' 44"
Sunlit
Object is in daylight
Visualization observer readout
Local Sidereal Time
13:15:23
Azimuth
46.159° ENE
Elevation
2.223°
Doppler factor
1
Orbital elements
Apogee altitude
965.733 km
Perigee altitude
780.088 km
Semi-major axis
7,251.048 km
Eccentricity
0.0128013
Inclination
90.2695°
RAAN
232.8528°
Arg. of periapsis
315.0847°
True anomaly
45.03407°
Mean anomaly
44.0032°
Eccentric anomaly
44.51745°
Mean motion
3.51514 °/min
BSTAR
0.0003314
Orbital period
102.41 mins
Loading maneuver chart data...
Loading SW <> Apogee altitude chart data...
Loading historical data...
Loading historical data...
Loading historical data...
Loading historical data...
Loading historical data...
Loading historical data...
Loading historical data...

SCOUT A DEB Visibility forecast

Observer location: undefined°, undefined°

Span
Click to sort rows by Start time (UTC) header in descending order
Start Az.
Max El. time (UTC)
Max El. Az.
Max El.
End time (UTC)
End Az.
10 mins2025-05-09 06:40:46.472Z147.983° SSE2025-05-09 06:45:46.472Z71.597° E34.141°2025-05-09 06:50:46.472Z11.272° NNE
7 mins2025-05-09 08:24:46.472Z235.468° WSW2025-05-09 08:27:46.472Z275.222° WNW21.764°2025-05-09 08:31:46.472Z325.371° NNW
10 mins2025-05-09 19:07:46.472Z8.161° NNE2025-05-09 19:11:46.472Z62.044° ENE43.928°2025-05-09 19:17:46.472Z177.735° S
5 mins2025-05-09 20:51:46.472Z308.785° NW2025-05-09 20:53:46.472Z286.799° WNW15.279°2025-05-09 20:56:46.472Z256.343° W
|